sat.trackr.live / text

‹ back to catalog

STARLINK-4770

NORAD 53849 · 2022-114AH

PAYLOAD ACTIVE UNKNOWN

§ Identity

Operator
Country
US
Launch date
2022-09-19
Launch site
AFETR
Launch vehicle
Mass (kg)
RCS (m²)

Purposes: comms

External: N2YO · Heavens-Above · Gunter

§ Orbital elements

Epoch: 2026-05-25T04:43:10.293888Z

Period
95.44 min
Inclination
53.2144°
Eccentricity
0.0001491
Mean motion
15.08851145 rev/d
Perigee alt
538.7 km
Apogee alt
540.7 km
Semi-major
6,917.8 km
B*
-1.4221e-4
RAAN
310.5191°
Arg perigee
82.9254°
Mean anomaly
277.1907°
Rev number
20,452

§ Raw data

STARLINK-47701 53849U 22114AH  26145.19664692 -.00002551  00000+0 -14221-3 0  99972 53849  53.2144 310.5191 0001491  82.9254 277.1907 15.08851145204529

JSON: /api/v1/satellites/53849 · /tle

For live sub-satellite position, see the globe view (requires WebGL).

§ Visibility from observer

Set your observer location to see the next 7 days of passes ≥ 10°. The values pass through the URL so the page stays shareable.

No JS? Fill the form by hand. The geolocation button needs JavaScript.